星链-30053 (STARLINK-30053 )

导读

STARLINK-30053是美国太空探索技术公司SpaceX星链(Starlink)星座中的卫星,于2023年5月19日发射。星链项目旨在构建全球卫星互联网星座,为全球提供宽带互联网接入服务,该卫星入轨后参与星座组网,进一步扩充星链星座规模,助力实现全球覆盖的卫星互联网络布局。

基本信息
目录编号:
56700
目录名称:
STARLINK-30053
国际标识:
2023-067N
轨道中心:
EARTH
卫星名称:
星链-30053
卫星全名:
星链-30053 (STARLINK-30053 )
卫星状态:
在轨 (已飞行1211 天)
发射日期:
2023-05-19 UTC
国别 :
美国 (US)
星等 :
--
该卫星已列入 空间交会检测服务 Space Conjunction Data Service (SCDS) ,当前飞行风险评估等级: 高风险
轨道信息
数据来源 国际轨道数据 AOE轨道数据
星历时间 2026-09-10T18:24:27+0800
22小时前
查看轨道信息
2026-09-10T06:00:00+0800
1天前
查看轨道信息
半长轴 6861.193km 6861.2km
偏心率 0.000195 0.0001896
轨道倾角 43.003° 43.003°
近地点辐角 268.469° 284.831°
升交点赤经 307.781° 310.700°
平近点角 91.594° 108.892°
近地点 481.718km 481.762km
远地点 484.394km 484.364km
周期 94.267分钟 94.267分钟
每日圈数 15.275777 15.275755
详细信息
固有亮度:
5
最大亮度:
0.3
卫星平台:
Starlink v2.0 mini
覆盖范围:
全球
运营商:
太空探索技术公司
运营商所在国:
美国
制造商(研发单位):
太空探索技术公司
制造商所在国:
美国
使用方式:
暂无
卫星简介
星链(Starlink)计划是由太空探索技术公司(SpaceX)提出的一个巨型低轨卫星互联网星座项目,计划在2019年至2024年间在太空搭建由约1.2万颗卫星组成的“星链”网络,其中1584颗将部署在地球上空550千米处的近地轨道,并从2020年开始工作。该卫星仍在工作。
2D轨道图
3D轨道图
轨道高度分析图
轨道倾角分析图
轨道综合分析图
查看轨道综合分析图
交会数据列表
事件ID 空间交会对象 最接近时刻(TCA) 交会距离 交会风险概率(CRP) 交会风险指数(CRI) 操作
CDM_260912-232105-670006-649121
2026-09-12T
23:21:11+0000
0.032 km
近距离
1.507011E-3 极高风险 0.99
CDM_260912-172705-670006-212621
2026-09-12T
17:27:34+0000
0.564 km
远距离
1.178018E-4 高风险 0.76
CDM_260913-060205-670006-299821
2026-09-13T
06:02:01+0000
0.757 km
远距离
4.946001E-5 中风险 0.69
CDM_260913-095605-670006-212621
2026-09-13T
09:56:11+0000
0.865 km
远距离
3.274805E-5 中风险 0.65
CDM_260913-113005-670006-212621
2026-09-13T
11:30:20+0000
1.422 km
极远距离
5.967216E-6 低风险 0.51
CDM_260913-031605-670006-649121
2026-09-13T
03:16:33+0000
1.388 km
极远距离
5.034457E-6 低风险 0.49
CDM_260912-190105-670006-212621
2026-09-12T
19:01:43+0000
1.917 km
极远距离
2.433273E-6 低风险 0.43
CDM_260912-155305-670006-212621
2026-09-12T
15:53:25+0000
2.307 km
极远距离
1.582473E-6 低风险 0.39
与全量物体交会距离演化趋势
与全量物体交会风险概率演化趋势